Simultaneous Nadir Overpasses (SNOs) Predictions

Prediction of SNOs between NOAA-15 and METOP-C Satellite Orbit:

Table of predicted SNOs for the next 14.0 days since TLE Epoch: 1/18/2025
Index Date (NOAA-15) Time (NOAA-15) Lat,Lon (NOAA-15) SZA (NOAA-15 ) Date (METOP-C) Time (METOP-C) Lat,Lon (METOP-C) SZA (METOP-C ) Distance(km) Time Diff (sec)
1 01/19/2025 14:31:25 80.93, 1.37 102.79 01/19/2025 14:30:21 80.90, -3.01 102.37 77.08 64
2 01/19/2025 15:22:01 -81.02, 167.09 77.29 01/19/2025 15:20:54 -81.03, 167.03 77.32 1.26 67
3 01/19/2025 16:12:28 81.02, -25.41 102.71 01/19/2025 16:11:35 81.03, -25.58 102.69 3.26 53
4 01/19/2025 17:03:00 -81.03, 141.76 77.31 01/19/2025 17:02:15 -81.04, 141.92 77.31 2.95 45
5 01/19/2025 17:53:28 81.04, -51.12 102.68 01/19/2025 17:52:57 81.02, -51.06 102.66 2.13 31
6 01/19/2025 18:43:59 -81.03, 116.42 77.33 01/19/2025 18:43:37 -81.03, 116.44 77.34 0.32 22
7 01/19/2025 19:34:26 81.03, -76.10 102.67 01/19/2025 19:34:18 81.03, -76.17 102.67 1.49 8
8 01/19/2025 20:24:58 -81.04, 91.08 77.35 01/19/2025 20:24:59 -81.02, 90.96 77.37 2.53 1
9 01/19/2025 21:15:25 81.03,-101.44 102.65 01/19/2025 21:15:39 81.04,-101.28 102.68 2.99 14
10 01/19/2025 22:05:57 -81.04, 65.74 77.37 01/19/2025 22:06:20 -81.03, 65.85 77.36 1.90 23
11 01/19/2025 22:56:24 81.04,-126.78 102.63 01/19/2025 22:57:01 81.04,-126.76 102.65 0.34 37
12 01/19/2025 23:46:55 -81.03, 40.77 77.37 01/19/2025 23:47:41 -81.04, 40.73 77.35 1.93 46
13 01/20/2025 00:37:23 81.04,-152.12 102.61 01/20/2025 00:38:23 81.03,-152.24 102.61 2.36 60



Historial Predications of SNOs between NOAA-15 and METOP-C
